Find Starlink 34957

NORAD ID: 65388 Int'l Des: 2025-191 Owner: SPXS Country: US Constellation: starlink operational
LEOCIRCULARRETROGRADESSO

リアルタイム位置

3D地球を読み込み中...

Starlink 34957について

説明を読み込み中...

次回通過

Passes for default location (London). Set your location on the main map for personalized predictions.

高度履歴

Loading altitude history...

軌道要素

1 65388U 25191K 26104.57717571 .00001869 00000-0 13371-3 0 9993
2 65388 97.6055 336.9626 0002286 87.7444 272.4045 15.05651274 35672
Epoch: Apr 14, 2026 • Age: 9 hours

現在のステータス

高度 555.9 km
速度 7.58 km/s
衛星直下点 -13.84°S, 27.94°W
打ち上げ日 Aug 30, 2025
運用期間 0.6 years
タイプ internet

技術仕様

分類 Payload
質量 575.00 kg
乾燥質量 530.00 kg
総質量 575.00 kg
長さ 0.30 m
直径 4.10 m
スパン 29.00 m
形状 Box + pan
製造者 SPXS
バスタイプ Starlink V2MO
フェーズステータス In Orbit
所有者/国 SPXS/US

Most Searched